This is the latest recevied weather packets stored in our database for station/object W5ITZ. If no packets are shown the sender has not sent any weather packets the latest 10 day(s).
| Time | Temp. | Humidity | Pressure | Rain* | Wind** | Luminosity | Snow |
|---|---|---|---|---|---|---|---|
| 1777474117 | 27.22° C | 81% | 1012.3 hPa | 0 mm | - | 460 W/m² | - |
| 1777473816 | 27.22° C | 80% | 1012.4 hPa | 0 mm | - | 379 W/m² | - |
| 1777473512 | 27.22° C | 81% | 1012 hPa | 0 mm | - | 356 W/m² | - |
| 1777473208 | 27.22° C | 81% | 1012 hPa | 0 mm | - | 297 W/m² | - |
| 1777472904 | 27.22° C | 82% | 1012.2 hPa | 0 mm | - | 318 W/m² | - |
| 1777472601 | 26.67° C | 83% | 1012.2 hPa | 0 mm | - | 396 W/m² | - |
| 1777472298 | 26.67° C | 84% | 1011.9 hPa | 0 mm | - | 211 W/m² | - |
| 1777471995 | 26.67° C | 84% | 1012 hPa | 0 mm | - | 243 W/m² | - |
| 1777471690 | 26.67° C | 87% | 1011.8 hPa | 0 mm | - | 321 W/m² | - |
| 1777471387 | 26.67° C | 87% | 1011.9 hPa | 0 mm | - | 376 W/m² | - |
| 1777471083 | 26.11° C | 89% | 1011.7 hPa | 0 mm | - | 234 W/m² | - |
| 1777470780 | 26.11° C | 92% | 1011.8 hPa | 0 mm | - | 321 W/m² | - |
| 1777470477 | 25.56° C | 92% | 1011.7 hPa | 0 mm | - | 151 W/m² | - |
| 1777470173 | 25.56° C | 93% | 1011.6 hPa | 0 mm | - | 274 W/m² | - |
| 1777469869 | 25° C | 94% | 1011.7 hPa | 0 mm | - | 195 W/m² | - |
| 1777469565 | 25° C | 93% | 1011.5 hPa | 0 mm | - | 223 W/m² | - |
| 1777469260 | 25° C | 94% | 1011.7 hPa | 0 mm | - | 203 W/m² | - |
| 1777468955 | 25° C | 95% | 1011.9 hPa | 0 mm | - | 195 W/m² | - |
| 1777468651 | 24.44° C | 95% | 1011.8 hPa | 0 mm | - | 155 W/m² | - |
| 1777468348 | 24.44° C | 95% | 1011.8 hPa | 0 mm | - | 106 W/m² | - |
| 1777468044 | 24.44° C | 95% | 1011.7 hPa | 0 mm | - | 106 W/m² | - |
| 1777467740 | 24.44° C | 95% | 1011.7 hPa | 0 mm | - | 100 W/m² | - |
| 1777467436 | 23.89° C | 95% | 1011.7 hPa | 0 mm | - | 92 W/m² | - |
| 1777467131 | 23.89° C | 95% | 1011.7 hPa | 0 mm | - | 88 W/m² | - |
| 1777466829 | 23.89° C | 96% | 1011.7 hPa | 0 mm | - | 76 W/m² | - |
* Rain latest hour (hover to see other rain measurements)
** Current wind speed in m/s (hover to see current wind gust speed)